| time (UTC) | temp C | wind direction | speed KPH | gust KPH | rain 1hr cm | rain 24hr cm | rain mn cm | humidity % | barometer mb |
| 20260508121956 | 9 | 0 | 0.0 | 0.0 | 0.00 | 0.00 | 0.00 | 43 | 1010.6 |
| 20260508121011 | 9 | 0 | 1.6 | 4.8 | 0.00 | 0.00 | 0.00 | 43 | 1010.5 |
| 20260508114800 | 10 | 0 | 0.0 | 3.2 | 0.00 | 0.00 | 0.00 | 43 | 1010.4 |
| 20260508113726 | 10 | 0 | 0.0 | 4.8 | 0.00 | 0.00 | 0.00 | 42 | 1010.4 |
| 20260508112715 | 10 | 0 | 0.0 | 4.8 | 0.00 | 0.00 | 0.00 | 41 | 1010.3 |
| 20260508111656 | 10 | 0 | 0.0 | 3.2 | 0.00 | 0.00 | 0.00 | 41 | 1010.2 |
| 20260508104432 | 11 | 0 | 1.6 | 3.2 | 0.00 | 0.00 | 0.00 | 38 | 1010.2 |
| 20260508102323 | 12 | 0 | 1.6 | 8.0 | 0.00 | 0.00 | 0.00 | 37 | 1010.0 |
| 20260508101303 | 12 | 0 | 3.2 | 8.0 | 0.00 | 0.00 | 0.00 | 36 | 1010.1 |
| 20260508100230 | 12 | 0 | 1.6 | 4.8 | 0.00 | 0.00 | 0.00 | 36 | 1010.0 |
| 20260508095247 | 12 | 0 | 0.0 | 3.2 | 0.00 | 0.00 | 0.00 | 35 | 1010.0 |
| 20260508094251 | 12 | 0 | 0.0 | 1.6 | 0.00 | 0.00 | 0.00 | 34 | 1009.9 |
| 20260508093307 | 12 | 0 | 4.8 | 8.0 | 0.00 | 0.00 | 0.00 | 34 | 1009.8 |
| 20260508092251 | 13 | 0 | 1.6 | 6.4 | 0.00 | 0.00 | 0.00 | 34 | 1009.9 |
| 20260508091238 | 13 | 0 | 0.0 | 6.4 | 0.00 | 0.00 | 0.00 | 32 | 1010.0 |
| 20260508090242 | 14 | 0 | 0.0 | 3.2 | 0.00 | 0.00 | 0.00 | 31 | 1010.1 |
| 20260508085248 | 14 | 0 | 0.0 | 3.2 | 0.00 | 0.00 | 0.00 | 31 | 1010.1 |
| 20260508084218 | 14 | 0 | 0.0 | 3.2 | 0.00 | 0.00 | 0.00 | 31 | 1010.2 |
| 20260508083238 | 14 | 0 | 1.6 | 1.6 | 0.00 | 0.00 | 0.00 | 30 | 1010.2 |
| 20260508082222 | 15 | 0 | 0.0 | 4.8 | 0.00 | 0.00 | 0.00 | 30 | 1010.1 |
| 20260508081201 | 15 | 0 | 0.0 | 6.4 | 0.00 | 0.00 | 0.00 | 29 | 1010.4 |
| 20260508080152 | 15 | 0 | 0.0 | 4.8 | 0.00 | 0.00 | 0.00 | 28 | 1010.4 |
| 20260508075210 | 16 | 0 | 0.0 | 0.0 | 0.00 | 0.00 | 0.00 | 27 | 1010.5 |
| 20260508074152 | 15 | 0 | 0.0 | 3.2 | 0.00 | 0.00 | 0.00 | 28 | 1010.6 |
| 20260508073154 | 15 | 0 | 0.0 | 0.0 | 0.00 | 0.00 | 0.00 | 28 | 1010.6 |
| 20260508072216 | 15 | 0 | 0.0 | 3.2 | 0.00 | 0.00 | 0.00 | 28 | 1010.7 |
| 20260508071217 | 16 | 0 | 0.0 | 1.6 | 0.00 | 0.00 | 0.00 | 26 | 1010.8 |
| 20260508070224 | 16 | 0 | 0.0 | 4.8 | 0.00 | 0.00 | 0.00 | 27 | 1010.8 |
| 20260508064034 | 16 | 0 | 0.0 | 1.6 | 0.00 | 0.00 | 0.00 | 25 | 1010.8 |
| 20260508063054 | 16 | 0 | 0.0 | 1.6 | 0.00 | 0.00 | 0.00 | 25 | 1010.9 |
| 20260508062058 | 17 | 0 | 0.0 | 0.0 | 0.00 | 0.00 | 0.00 | 24 | 1011.1 |
| 20260508061047 | 17 | 0 | 1.6 | 4.8 | 0.00 | 0.00 | 0.00 | 22 | 1011.1 |
| 20260508060026 | 18 | 0 | 0.0 | 0.0 | 0.00 | 0.00 | 0.00 | 20 | 1011.0 |
| 20260508055032 | 20 | 0 | 0.0 | 0.0 | 0.00 | 0.00 | 0.00 | 19 | 1010.9 |
| 20260508054038 | 20 | 0 | 4.8 | 8.0 | 0.00 | 0.00 | 0.00 | 18 | 1010.9 |
| 20260508053019 | 20 | 0 | 6.4 | 14.5 | 0.00 | 0.00 | 0.00 | 19 | 1011.0 |
| 20260508051957 | 20 | 0 | 6.4 | 14.5 | 0.00 | 0.00 | 0.00 | 18 | 1011.3 |
| 20260508051018 | 20 | 0 | 3.2 | 12.9 | 0.00 | 0.00 | 0.00 | 19 | 1011.7 |
| 20260508045948 | 20 | 0 | 3.2 | 8.0 | 0.00 | 0.00 | 0.00 | 19 | 1011.8 |
| 20260508045007 | 21 | 0 | 3.2 | 8.0 | 0.00 | 0.00 | 0.00 | 18 | 1011.6 |
| 20260508044031 | 21 | 0 | 1.6 | 12.9 | 0.00 | 0.00 | 0.00 | 17 | 1011.1 |
| 20260508041839 | 21 | 0 | 3.2 | 11.3 | 0.00 | 0.00 | 0.00 | 17 | 1010.8 |
| 20260508035715 | 21 | 0 | 0.0 | 6.4 | 0.00 | 0.00 | 0.00 | 17 | 1010.4 |
| 20260508034731 | 22 | 0 | 4.8 | 16.1 | 0.00 | 0.00 | 0.00 | 15 | 1010.2 |
| 20260508033702 | 22 | 0 | 8.0 | 16.1 | 0.00 | 0.00 | 0.00 | 14 | 1009.6 |
| 20260508030403 | 23 | 0 | 12.9 | 20.9 | 0.00 | 0.00 | 0.00 | 13 | 1009.0 |
| 20260508025411 | 23 | 0 | 11.3 | 20.9 | 0.00 | 0.00 | 0.00 | 13 | 1009.0 |
| 20260508024354 | 23 | 0 | 4.8 | 16.1 | 0.00 | 0.00 | 0.00 | 14 | 1009.5 |
| 20260508023333 | 23 | 0 | 6.4 | 16.1 | 0.00 | 0.00 | 0.00 | 14 | 1009.5 |
| 20260508022321 | 23 | 0 | 8.0 | 25.7 | 0.00 | 0.00 | 0.00 | 13 | 1009.4 |
| 20260508021346 | 23 | 0 | 16.1 | 25.7 | 0.00 | 0.00 | 0.00 | 13 | 1009.0 |
| 20260508020332 | 23 | 0 | 8.0 | 20.9 | 0.00 | 0.00 | 0.00 | 12 | 1009.0 |
| 20260508015315 | 23 | 0 | 8.0 | 20.9 | 0.00 | 0.00 | 0.00 | 12 | 1009.0 |
| 20260508014328 | 24 | 0 | 4.8 | 38.6 | 0.00 | 0.00 | 0.00 | 12 | 1008.7 |
| 20260508013315 | 23 | 0 | 11.3 | 38.6 | 0.00 | 0.00 | 0.00 | 12 | 1008.3 |
| 20260508012249 | 23 | 0 | 14.5 | 32.2 | 0.00 | 0.00 | 0.00 | 12 | 1008.5 |
| 20260508011221 | 23 | 0 | 11.3 | 37.0 | 0.00 | 0.00 | 0.00 | 13 | 1008.7 |
| 20260508010203 | 23 | 0 | 11.3 | 37.0 | 0.00 | 0.00 | 0.00 | 14 | 1009.0 |
| 20260508005154 | 24 | 0 | 11.3 | 37.0 | 0.00 | 0.00 | 0.00 | 12 | 1008.8 |
| 20260508003009 | 24 | 0 | 16.1 | 33.8 | 0.00 | 0.00 | 0.00 | 12 | 1008.5 |
| 20260508001956 | 24 | 0 | 20.9 | 40.2 | 0.00 | 0.00 | 0.00 | 12 | 1008.2 |
| 20260508000953 | 25 | 0 | 19.3 | 40.2 | 0.00 | 0.00 | 0.00 | 10 | 1007.9 |
| 20260507235924 | 25 | 0 | 8.0 | 27.4 | 0.00 | 0.00 | 0.00 | 9 | 1007.6 |
| 20260507234924 | 25 | 0 | 14.5 | 29.0 | 0.00 | 0.00 | 0.00 | 10 | 1007.3 |
| 20260507233919 | 25 | 0 | 17.7 | 37.0 | 0.00 | 0.00 | 0.00 | 9 | 1007.4 |
| 20260507232920 | 26 | 0 | 22.5 | 37.0 | 0.00 | 0.00 | 0.00 | 9 | 1007.1 |
| 20260507231932 | 27 | 0 | 17.7 | 33.8 | 0.00 | 0.00 | 0.00 | 8 | 1006.9 |
| 20260507225856 | 27 | 0 | 4.8 | 12.9 | 0.00 | 0.00 | 0.00 | 4 | 1006.8 |
| 20260507224846 | 27 | 0 | 3.2 | 11.3 | 0.00 | 0.00 | 0.00 | 4 | 1006.8 |
| 20260507223828 | 27 | 0 | 1.6 | 11.3 | 0.00 | 0.00 | 0.00 | 3 | 1006.8 |
| 20260507222814 | 27 | 0 | 6.4 | 24.1 | 0.00 | 0.00 | 0.00 | 4 | 1007.0 |
| 20260507221806 | 27 | 0 | 9.7 | 24.1 | 0.00 | 0.00 | 0.00 | 3 | 1007.1 |
| 20260507220744 | 27 | 0 | 6.4 | 22.5 | 0.00 | 0.00 | 0.00 | 4 | 1007.2 |
| 20260507215803 | 26 | 0 | 8.0 | 46.7 | 0.00 | 0.00 | 0.00 | 6 | 1007.5 |
| 20260507213552 | 28 | 0 | 4.8 | 19.3 | 0.00 | 0.00 | 0.00 | 3 | 1007.6 |
| 20260507212600 | 28 | 0 | 6.4 | 19.3 | 0.00 | 0.00 | 0.00 | 4 | 1007.5 |
| 20260507211620 | 27 | 0 | 8.0 | 17.7 | 0.00 | 0.00 | 0.00 | 4 | 1007.5 |
| 20260507210626 | 27 | 0 | 4.8 | 16.1 | 0.00 | 0.00 | 0.00 | 4 | 1007.7 |
| 20260507205643 | 28 | 0 | 3.2 | 17.7 | 0.00 | 0.00 | 0.00 | 3 | 1007.9 |
| 20260507204608 | 28 | 0 | 3.2 | 17.7 | 0.00 | 0.00 | 0.00 | 4 | 1007.8 |
| 20260507203550 | 28 | 0 | 3.2 | 19.3 | 0.00 | 0.00 | 0.00 | 5 | 1008.0 |
| 20260507202539 | 28 | 0 | 6.4 | 19.3 | 0.00 | 0.00 | 0.00 | 4 | 1007.9 |
| 20260507201503 | 28 | 0 | 4.8 | 19.3 | 0.00 | 0.00 | 0.00 | 4 | 1008.3 |
| 20260507200444 | 28 | 0 | 6.4 | 24.1 | 0.00 | 0.00 | 0.00 | 3 | 1008.4 |
| 20260507192222 | 28 | 0 | 6.4 | 19.3 | 0.00 | 0.00 | 0.00 | 4 | 1009.1 |
| 20260507191212 | 28 | 0 | 6.4 | 17.7 | 0.00 | 0.00 | 0.00 | 4 | 1009.2 |
| 20260507190226 | 28 | 0 | 1.6 | 12.9 | 0.00 | 0.00 | 0.00 | 4 | 1009.3 |
| 20260507184117 | 28 | 0 | 4.8 | 16.1 | 0.00 | 0.00 | 0.00 | 4 | 1009.6 |
| 20260507183121 | 27 | 0 | 4.8 | 16.1 | 0.00 | 0.00 | 0.00 | 6 | 1009.7 |
| 20260507182049 | 27 | 0 | 4.8 | 14.5 | 0.00 | 0.00 | 0.00 | 4 | 1009.8 |
| 20260507181030 | 27 | 0 | 1.6 | 12.9 | 0.00 | 0.00 | 0.00 | 5 | 1009.8 |
| 20260507180032 | 27 | 0 | 1.6 | 12.9 | 0.00 | 0.00 | 0.00 | 5 | 1009.9 |
| 20260507175002 | 27 | 0 | 3.2 | 12.9 | 0.00 | 0.00 | 0.00 | 5 | 1010.0 |
| 20260507174011 | 27 | 0 | 3.2 | 11.3 | 0.00 | 0.00 | 0.00 | 5 | 1010.2 |
| 20260507173015 | 26 | 0 | 1.6 | 4.8 | 0.00 | 0.00 | 0.00 | 6 | 1010.4 |
| 20260507172037 | 26 | 0 | 1.6 | 11.3 | 0.00 | 0.00 | 0.00 | 6 | 1010.5 |
| 20260507171011 | 26 | 0 | 1.6 | 11.3 | 0.00 | 0.00 | 0.00 | 7 | 1010.5 |
| 20260507164929 | 24 | 0 | 1.6 | 11.3 | 0.00 | 0.00 | 0.00 | 13 | 1010.7 |
| 20260507163929 | 23 | 0 | 1.6 | 8.0 | 0.00 | 0.00 | 0.00 | 12 | 1010.7 |
| 20260507162857 | 22 | 0 | 0.0 | 4.8 | 0.00 | 0.00 | 0.00 | 15 | 1010.7 |
| 20260507161908 | 22 | 0 | 0.0 | 4.8 | 0.00 | 0.00 | 0.00 | 16 | 1010.9 |
| 20260507160900 | 21 | 0 | 0.0 | 3.2 | 0.00 | 0.00 | 0.00 | 17 | 1011.2 |
| 20260507155917 | 20 | 0 | 1.6 | 6.4 | 0.00 | 0.00 | 0.00 | 19 | 1011.4 |
| 20260507153834 | 18 | 0 | 4.8 | 12.9 | 0.00 | 0.00 | 0.00 | 23 | 1011.8 |
| 20260507151652 | 17 | 0 | 6.4 | 16.1 | 0.00 | 0.00 | 0.00 | 27 | 1011.8 |
| 20260507145453 | 15 | 0 | 0.0 | 4.8 | 0.00 | 0.00 | 0.00 | 30 | 1011.5 |
| 20260507144456 | 15 | 0 | 1.6 | 6.4 | 0.00 | 0.00 | 0.00 | 32 | 1011.6 |
| 20260507143448 | 14 | 0 | 1.6 | 8.0 | 0.00 | 0.00 | 0.00 | 32 | 1011.7 |
| 20260507142425 | 13 | 0 | 1.6 | 12.9 | 0.00 | 0.00 | 0.00 | 33 | 1011.9 |
| 20260507140258 | 11 | 0 | 1.6 | 11.3 | 0.00 | 0.00 | 0.00 | 36 | 1012.0 |
| 20260507135224 | 11 | 0 | 1.6 | 8.0 | 0.00 | 0.00 | 0.00 | 36 | 1012.1 |
| 20260507134211 | 10 | 0 | 3.2 | 8.0 | 0.00 | 0.00 | 0.00 | 37 | 1012.0 |
| 20260507133153 | 10 | 0 | 1.6 | 4.8 | 0.00 | 0.00 | 0.00 | 40 | 1011.9 |
| 20260507132131 | 9 | 0 | 0.0 | 3.2 | 0.00 | 0.00 | 0.00 | 41 | 1011.8 |
| 20260507131147 | 8 | 0 | 0.0 | 1.6 | 0.00 | 0.00 | 0.00 | 41 | 1011.8 |
| 20260507130145 | 8 | 0 | 0.0 | 0.0 | 0.00 | 0.00 | 0.00 | 40 | 1011.7 |
| 20260507125142 | 8 | 0 | 1.6 | 8.0 | 0.00 | 0.00 | 0.00 | 41 | 1011.6 |
| 20260507124136 | 8 | 0 | 0.0 | 0.0 | 0.00 | 0.00 | 0.00 | 41 | 1011.5 |
| 20260507123129 | 8 | 0 | 0.0 | 0.0 | 0.00 | 0.00 | 0.00 | 41 | 1011.5 |